Weather in Chany

Russia / Novosibirsk Oblast     55°18′33″N   76°45′40″E
temp.,
°C
wind,
m/s
gust,
m/s
humid.,
%
clouds,
%
prec.,
mm/h
press.,
hPa
HPBL,
m
7 march, sun
sun701:00−12wsw5119354 0.0 1011233
04:00−15wsw47942 0.0 1013114
07:00−16sw47941 0.0 101590
10:00−15sw599233 0.0 1016196
13:00−11sw598942 0.0 1018303
16:00−9sw588787 0.0 1018344
19:00−10s359172 0.0 1017118
22:00−9sse5119198 0.0 1015313
8 march, mon
mon801:00−3s9169499 0.6 1011699
04:00−1s91692100 0.4 1006757
07:00−1s91590100 0.4 1004647
10:00−2ssw101693100 0.2 1002648
13:00−2ssw91596100 0.9 1001780
16:00−4wnw91194100 1.8 1003574
19:00−9w61389100 2.1 1008563
22:00−12w6149383 0.0 1013358
9 march, tue
tue901:00−12wsw5119288 0.0 1017403
04:00−15sw5109386 0.0 1018226
07:00−15ssw6139083 0.0 1018288
10:00−15ssw6139157 0.0 1018357
13:00−11sw7129068 0.0 1019472
16:00−9ssw71191100 0.0 1018506
19:00−10ssw51092100 0.0 1018393
22:00−12ssw5119498 0.0 1018242
10 march, wed
wed1001:00−13ssw599495 0.0 1016190
04:00−13ssw5109194 0.0 1014253
07:00−12ssw5108897 0.0 1013264
10:00−10s5885100 0.0 1011265
13:00−9s5887100 0.0 1009278
16:00−7se4692100 0.1 1005337
19:00−7ese3696100 2.3 1000371
22:00−7nne3596100 3.8 997157
11 march, thu
thu1101:00−9wnw599599 4.1 997284
04:00−10wsw5109494 0.1 1000317
07:00−9sw6139397 0.3 1003357
10:00−8sw81491100 0.3 1004790
13:00−9sw91488100 0.4 10061043
16:00−9sw101487100 0.1 1009952
19:00−11wsw71289100 0.3 1013638
22:00−13sw51193100 0.1 1015538